Year,Month,Day,Hour,Minute,Value (Times are PST for temperature in C)
2008,04,27,00,00,13.20
2008,04,27,00,01,13.10
2008,04,27,00,02,13.10
2008,04,27,00,03,13.10
2008,04,27,00,04,13.10
2008,04,27,00,05,13.00
2008,04,27,00,06,12.90
2008,04,27,00,07,12.90
2008,04,27,00,08,12.90
2008,04,27,00,09,12.80
2008,04,27,00,10,12.80
2008,04,27,00,11,12.70
2008,04,27,00,12,12.70
2008,04,27,00,13,12.60
2008,04,27,00,14,12.40
2008,04,27,00,15,12.20
2008,04,27,00,16,12.00
2008,04,27,00,17,11.70
2008,04,27,00,18,11.60
2008,04,27,00,19,11.40
2008,04,27,00,20,11.30
2008,04,27,00,21,11.20
2008,04,27,00,22,11.20
2008,04,27,00,23,11.10
2008,04,27,00,24,11.10
2008,04,27,00,25,11.00
2008,04,27,00,26,11.00
2008,04,27,00,27,10.90
2008,04,27,00,28,10.90
2008,04,27,00,29,10.80
2008,04,27,00,30,10.90
2008,04,27,00,31,11.00
2008,04,27,00,32,11.20
2008,04,27,00,33,11.40
2008,04,27,00,34,11.40
2008,04,27,00,35,11.50
2008,04,27,00,36,11.60
2008,04,27,00,37,11.70
2008,04,27,00,38,11.70
2008,04,27,00,39,11.60
2008,04,27,00,40,11.50
2008,04,27,00,41,11.30
2008,04,27,00,42,11.30
2008,04,27,00,43,11.20
2008,04,27,00,44,11.10
2008,04,27,00,45,11.10
2008,04,27,00,46,11.10
2008,04,27,00,47,11.10
2008,04,27,00,48,11.00
2008,04,27,00,49,10.90
2008,04,27,00,50,10.90
2008,04,27,00,51,10.80
2008,04,27,00,52,10.80
2008,04,27,00,53,10.80
2008,04,27,00,54,10.80
2008,04,27,00,55,10.80
2008,04,27,00,56,10.80
2008,04,27,00,57,10.80
2008,04,27,00,58,10.90
2008,04,27,00,59,10.90
2008,04,27,01,00,11.00
2008,04,27,01,01,11.10
2008,04,27,01,02,11.20
2008,04,27,01,03,11.30
2008,04,27,01,04,11.30
2008,04,27,01,05,11.40
2008,04,27,01,06,11.40
2008,04,27,01,07,11.40
2008,04,27,01,08,11.40
2008,04,27,01,09,11.40
2008,04,27,01,10,11.40
2008,04,27,01,11,11.40
2008,04,27,01,12,11.50
2008,04,27,01,13,11.50
2008,04,27,01,14,11.60
2008,04,27,01,15,11.70
2008,04,27,01,16,11.70
2008,04,27,01,17,11.70
2008,04,27,01,18,11.70
2008,04,27,01,19,11.70
2008,04,27,01,20,11.80
2008,04,27,01,21,11.70
2008,04,27,01,22,11.70
2008,04,27,01,23,11.70
2008,04,27,01,24,11.70
2008,04,27,01,25,11.70
2008,04,27,01,26,11.70
2008,04,27,01,27,11.70
2008,04,27,01,28,11.70
2008,04,27,01,29,11.60
2008,04,27,01,30,11.70
2008,04,27,01,31,11.70
2008,04,27,01,32,11.70
2008,04,27,01,33,11.70
2008,04,27,01,34,11.70
2008,04,27,01,35,11.70
2008,04,27,01,36,11.70
2008,04,27,01,37,11.80
2008,04,27,01,38,11.80
2008,04,27,01,39,11.80
2008,04,27,01,40,11.80
2008,04,27,01,41,11.80
2008,04,27,01,42,11.80
2008,04,27,01,43,11.80
2008,04,27,01,44,11.80
2008,04,27,01,45,11.90
2008,04,27,01,46,11.90
2008,04,27,01,47,11.90
2008,04,27,01,48,11.90
2008,04,27,01,49,11.90
2008,04,27,01,50,11.90
2008,04,27,01,51,11.90
2008,04,27,01,52,11.90
2008,04,27,01,53,11.80
2008,04,27,01,54,11.80
2008,04,27,01,55,11.80
2008,04,27,01,56,11.80
2008,04,27,01,57,11.80
2008,04,27,01,58,11.80
2008,04,27,01,59,11.80
2008,04,27,02,00,11.80
2008,04,27,02,01,11.80
2008,04,27,02,02,11.80
2008,04,27,02,03,11.80
2008,04,27,02,04,11.90
2008,04,27,02,05,11.90
2008,04,27,02,06,11.90
2008,04,27,02,07,11.90
2008,04,27,02,08,12.00
2008,04,27,02,09,12.00
2008,04,27,02,10,12.00
2008,04,27,02,11,12.10
2008,04,27,02,12,12.10
2008,04,27,02,13,12.10
2008,04,27,02,14,12.20
2008,04,27,02,15,12.20
2008,04,27,02,16,12.20
2008,04,27,02,17,12.20
2008,04,27,02,18,12.20
2008,04,27,02,19,12.20
2008,04,27,02,20,12.20
2008,04,27,02,21,12.20
2008,04,27,02,22,12.20
2008,04,27,02,23,12.30
2008,04,27,02,24,12.30
2008,04,27,02,25,12.40
2008,04,27,02,26,12.40
2008,04,27,02,27,12.40
2008,04,27,02,28,12.50
2008,04,27,02,29,12.60
2008,04,27,02,30,12.60
2008,04,27,02,31,12.60
2008,04,27,02,32,12.70
2008,04,27,02,33,12.70
2008,04,27,02,34,12.70
2008,04,27,02,35,12.70
2008,04,27,02,36,12.60
2008,04,27,02,37,12.60
2008,04,27,02,38,12.50
2008,04,27,02,39,12.50
2008,04,27,02,40,12.50
2008,04,27,02,41,12.50
2008,04,27,02,42,12.60
2008,04,27,02,43,12.60
2008,04,27,02,44,12.60
2008,04,27,02,45,12.60
2008,04,27,02,46,12.50
2008,04,27,02,47,12.50
2008,04,27,02,48,12.50
2008,04,27,02,49,12.50
2008,04,27,02,50,12.40
2008,04,27,02,51,12.40
2008,04,27,02,52,12.50
2008,04,27,02,53,12.40
2008,04,27,02,54,12.40
2008,04,27,02,55,12.40
2008,04,27,02,56,12.40
2008,04,27,02,57,12.40
2008,04,27,02,58,12.40
2008,04,27,02,59,12.40
2008,04,27,03,00,12.40
2008,04,27,03,01,12.40
2008,04,27,03,02,12.40
2008,04,27,03,03,12.40
2008,04,27,03,04,12.40
2008,04,27,03,05,12.40
2008,04,27,03,06,12.30
2008,04,27,03,07,12.30
2008,04,27,03,08,12.30
2008,04,27,03,09,12.30
2008,04,27,03,10,12.30
2008,04,27,03,11,12.30
2008,04,27,03,12,12.30
2008,04,27,03,13,12.20
2008,04,27,03,14,12.30
2008,04,27,03,15,12.20
2008,04,27,03,16,12.20
2008,04,27,03,17,12.10
2008,04,27,03,18,12.10
2008,04,27,03,19,11.90
2008,04,27,03,20,11.80
2008,04,27,03,21,11.70
2008,04,27,03,22,11.60
2008,04,27,03,23,11.50
2008,04,27,03,24,11.40
2008,04,27,03,25,11.30
2008,04,27,03,26,11.30
2008,04,27,03,27,11.20
2008,04,27,03,28,11.20
2008,04,27,03,29,11.10
2008,04,27,03,30,11.10
2008,04,27,03,31,11.10
2008,04,27,03,32,11.10
2008,04,27,03,33,11.10
2008,04,27,03,34,11.10
2008,04,27,03,35,11.10
2008,04,27,03,36,11.10
2008,04,27,03,37,11.10
2008,04,27,03,38,11.10
2008,04,27,03,39,11.10
2008,04,27,03,40,11.10
2008,04,27,03,41,11.00
2008,04,27,03,42,11.00
2008,04,27,03,43,10.90
2008,04,27,03,44,10.90
2008,04,27,03,45,10.90
2008,04,27,03,46,10.90
2008,04,27,03,47,10.90
2008,04,27,03,48,10.90
2008,04,27,03,49,10.90
2008,04,27,03,50,10.90
2008,04,27,03,51,10.90
2008,04,27,03,52,11.00
2008,04,27,03,53,11.00
2008,04,27,03,54,11.10
2008,04,27,03,55,11.20
2008,04,27,03,56,11.30
2008,04,27,03,57,11.30
2008,04,27,03,58,11.30
2008,04,27,03,59,11.40
2008,04,27,04,00,11.40
2008,04,27,04,01,11.40
2008,04,27,04,02,11.40
2008,04,27,04,03,11.40
2008,04,27,04,04,11.40
2008,04,27,04,05,11.40
2008,04,27,04,06,11.50
2008,04,27,04,07,11.50
2008,04,27,04,08,11.60
2008,04,27,04,09,11.60
2008,04,27,04,10,11.60
2008,04,27,04,11,11.60
2008,04,27,04,12,11.60
2008,04,27,04,13,11.60
2008,04,27,04,14,11.70
2008,04,27,04,15,11.80
2008,04,27,04,16,11.80
2008,04,27,04,17,11.80
2008,04,27,04,18,11.80
2008,04,27,04,19,11.80
2008,04,27,04,20,11.80
2008,04,27,04,21,11.90
2008,04,27,04,22,11.90
2008,04,27,04,23,11.80
2008,04,27,04,24,11.80
2008,04,27,04,25,11.80
2008,04,27,04,26,11.80
2008,04,27,04,27,11.80
2008,04,27,04,28,11.80
2008,04,27,04,29,11.80
2008,04,27,04,30,11.80
2008,04,27,04,31,11.90
2008,04,27,04,32,11.90
2008,04,27,04,33,11.80
2008,04,27,04,34,11.80
2008,04,27,04,35,11.80
2008,04,27,04,36,11.80
2008,04,27,04,37,11.80
2008,04,27,04,38,11.70
2008,04,27,04,39,11.70
2008,04,27,04,40,11.70
2008,04,27,04,41,11.60
2008,04,27,04,42,11.60
2008,04,27,04,43,11.50
2008,04,27,04,44,11.50
2008,04,27,04,45,11.50
2008,04,27,04,46,11.40
2008,04,27,04,47,11.40
2008,04,27,04,48,11.30
2008,04,27,04,49,11.30
2008,04,27,04,50,11.30
2008,04,27,04,51,11.30
2008,04,27,04,52,11.30
2008,04,27,04,53,11.20
2008,04,27,04,54,11.20
2008,04,27,04,55,11.20
2008,04,27,04,56,11.20
2008,04,27,04,57,11.20
2008,04,27,04,58,11.20
2008,04,27,04,59,11.30
2008,04,27,05,00,11.30
2008,04,27,05,01,11.30
2008,04,27,05,02,11.30
2008,04,27,05,03,11.30
2008,04,27,05,04,11.30
2008,04,27,05,05,11.20
2008,04,27,05,06,11.20
2008,04,27,05,07,11.10
2008,04,27,05,08,11.10
2008,04,27,05,09,11.10
2008,04,27,05,10,11.20
2008,04,27,05,11,11.20
2008,04,27,05,12,11.20
2008,04,27,05,13,11.20
2008,04,27,05,14,11.20
2008,04,27,05,15,11.20
2008,04,27,05,16,11.10
2008,04,27,05,17,11.10
2008,04,27,05,18,11.10
2008,04,27,05,19,11.10
2008,04,27,05,20,11.10
2008,04,27,05,21,11.10
2008,04,27,05,22,11.10
2008,04,27,05,23,11.10
2008,04,27,05,24,11.20
2008,04,27,05,25,11.20
2008,04,27,05,26,11.10
2008,04,27,05,27,11.10
2008,04,27,05,28,11.00
2008,04,27,05,29,11.00
2008,04,27,05,30,10.90
2008,04,27,05,31,11.00
2008,04,27,05,32,11.10
2008,04,27,05,33,11.10
2008,04,27,05,34,11.10
2008,04,27,05,35,11.10
2008,04,27,05,36,11.10
2008,04,27,05,37,11.10
2008,04,27,05,38,11.20
2008,04,27,05,39,11.20
2008,04,27,05,40,11.20
2008,04,27,05,41,11.20
2008,04,27,05,42,11.20
2008,04,27,05,43,11.20
2008,04,27,05,44,11.20
2008,04,27,05,45,11.20
2008,04,27,05,46,11.20
2008,04,27,05,47,11.10
2008,04,27,05,48,11.10
2008,04,27,05,49,11.10
2008,04,27,05,50,11.00
2008,04,27,05,51,11.00
2008,04,27,05,52,10.90
2008,04,27,05,53,10.80
2008,04,27,05,54,10.80
2008,04,27,05,55,10.80
2008,04,27,05,56,10.80
2008,04,27,05,57,10.80
2008,04,27,05,58,10.80
2008,04,27,05,59,10.80
2008,04,27,06,00,10.80
2008,04,27,06,01,10.80
2008,04,27,06,02,10.80
2008,04,27,06,03,10.80
2008,04,27,06,04,10.80
2008,04,27,06,05,10.80
2008,04,27,06,06,10.80
2008,04,27,06,07,10.80
2008,04,27,06,08,10.70
2008,04,27,06,09,10.70
2008,04,27,06,10,10.60
2008,04,27,06,11,10.50
2008,04,27,06,12,10.40
2008,04,27,06,13,10.30
2008,04,27,06,14,10.20
2008,04,27,06,15,10.10
2008,04,27,06,16,9.90
2008,04,27,06,17,9.80
2008,04,27,06,18,9.80
2008,04,27,06,19,9.80
2008,04,27,06,20,9.70
2008,04,27,06,21,9.70
2008,04,27,06,22,9.70
2008,04,27,06,23,9.60
2008,04,27,06,24,9.60
2008,04,27,06,25,9.60
2008,04,27,06,26,9.70
2008,04,27,06,27,9.70
2008,04,27,06,28,9.80
2008,04,27,06,29,9.90
2008,04,27,06,30,10.00
2008,04,27,06,31,10.10
2008,04,27,06,32,10.10
2008,04,27,06,33,10.20
2008,04,27,06,34,10.20
2008,04,27,06,35,10.20
2008,04,27,06,36,10.20
2008,04,27,06,37,10.20
2008,04,27,06,38,10.20
2008,04,27,06,39,10.20
2008,04,27,06,40,10.20
2008,04,27,06,41,10.30
2008,04,27,06,42,10.30
2008,04,27,06,43,10.30
2008,04,27,06,44,10.30
2008,04,27,06,45,10.40
2008,04,27,06,46,10.40
2008,04,27,06,47,10.40
2008,04,27,06,48,10.40
2008,04,27,06,49,10.40
2008,04,27,06,50,10.40
2008,04,27,06,51,10.30
2008,04,27,06,52,10.30
2008,04,27,06,53,10.30
2008,04,27,06,54,10.30
2008,04,27,06,55,10.30
2008,04,27,06,56,10.30
2008,04,27,06,57,10.30
2008,04,27,06,58,10.30
2008,04,27,06,59,10.30
2008,04,27,07,00,10.30
2008,04,27,07,01,10.20
2008,04,27,07,02,10.20
2008,04,27,07,03,10.10
2008,04,27,07,04,10.10
2008,04,27,07,05,10.10
2008,04,27,07,06,10.10
2008,04,27,07,07,10.10
2008,04,27,07,08,10.10
2008,04,27,07,09,10.00
2008,04,27,07,10,10.00
2008,04,27,07,11,10.00
2008,04,27,07,12,9.90
2008,04,27,07,13,9.90
2008,04,27,07,14,9.90
2008,04,27,07,15,10.00
2008,04,27,07,16,10.10
2008,04,27,07,17,10.10
2008,04,27,07,18,10.10
2008,04,27,07,19,10.20
2008,04,27,07,20,10.20
2008,04,27,07,21,10.20
2008,04,27,07,22,10.20
2008,04,27,07,23,10.20
2008,04,27,07,24,10.20
2008,04,27,07,25,10.20
2008,04,27,07,26,10.20
2008,04,27,07,27,10.20
2008,04,27,07,28,10.20
2008,04,27,07,29,10.10
2008,04,27,07,30,10.10
2008,04,27,07,31,10.10
2008,04,27,07,32,10.10
2008,04,27,07,33,10.10
2008,04,27,07,34,10.10
2008,04,27,07,35,10.10
2008,04,27,07,36,10.10
2008,04,27,07,37,10.10
2008,04,27,07,38,10.10
2008,04,27,07,39,10.20
2008,04,27,07,40,10.20
2008,04,27,07,41,10.20
2008,04,27,07,42,10.30
2008,04,27,07,43,10.30
2008,04,27,07,44,10.40
2008,04,27,07,45,10.40
2008,04,27,07,46,10.50
2008,04,27,07,47,10.50
2008,04,27,07,48,10.60
2008,04,27,07,49,10.70
2008,04,27,07,50,10.80
2008,04,27,07,51,10.80
2008,04,27,07,52,10.80
2008,04,27,07,53,10.90
2008,04,27,07,54,10.90
2008,04,27,07,55,11.00
2008,04,27,07,56,11.00
2008,04,27,07,57,11.00
2008,04,27,07,58,11.00
2008,04,27,07,59,11.10
2008,04,27,08,00,11.10
2008,04,27,08,01,11.20
2008,04,27,08,02,11.20
2008,04,27,08,03,11.20
2008,04,27,08,04,11.20
2008,04,27,08,05,11.20
2008,04,27,08,06,11.10
2008,04,27,08,07,11.00
2008,04,27,08,08,11.00
2008,04,27,08,09,11.00
2008,04,27,08,10,11.10
2008,04,27,08,11,11.10
2008,04,27,08,12,11.20
2008,04,27,08,13,11.30
2008,04,27,08,14,11.30
2008,04,27,08,15,11.40
2008,04,27,08,16,11.40
2008,04,27,08,17,11.40
2008,04,27,08,18,11.50
2008,04,27,08,19,11.50
2008,04,27,08,20,11.40
2008,04,27,08,21,11.40
2008,04,27,08,22,11.30
2008,04,27,08,23,11.30
2008,04,27,08,24,11.20
2008,04,27,08,25,11.20
2008,04,27,08,26,11.20
2008,04,27,08,27,11.30
2008,04,27,08,28,11.30
2008,04,27,08,29,11.30
2008,04,27,08,30,11.30
2008,04,27,08,31,11.30
2008,04,27,08,32,11.30
2008,04,27,08,33,11.40
2008,04,27,08,34,11.30
2008,04,27,08,35,11.30
2008,04,27,08,36,11.30
2008,04,27,08,37,11.30
2008,04,27,08,38,11.30
2008,04,27,08,39,11.30
2008,04,27,08,40,11.30
2008,04,27,08,41,11.30
2008,04,27,08,42,11.30
2008,04,27,08,43,11.30
2008,04,27,08,44,11.30
2008,04,27,08,45,11.30
2008,04,27,08,46,11.30
2008,04,27,08,47,11.30
2008,04,27,08,48,11.30
2008,04,27,08,49,11.30
2008,04,27,08,50,11.30
2008,04,27,08,51,11.20
2008,04,27,08,52,11.20
2008,04,27,08,53,11.20
2008,04,27,08,54,11.20
2008,04,27,08,55,11.10
2008,04,27,08,56,11.10
2008,04,27,08,57,11.00
2008,04,27,08,58,11.00
2008,04,27,08,59,11.00
2008,04,27,09,00,10.90
2008,04,27,09,01,10.90
2008,04,27,09,02,10.90
2008,04,27,09,03,10.90
2008,04,27,09,04,10.90
2008,04,27,09,05,10.90
2008,04,27,09,06,10.90
2008,04,27,09,07,10.90
2008,04,27,09,08,10.90
2008,04,27,09,09,10.90
2008,04,27,09,10,10.90
2008,04,27,09,11,11.00
2008,04,27,09,12,11.00
2008,04,27,09,13,11.00
2008,04,27,09,14,11.10
2008,04,27,09,15,11.10
2008,04,27,09,16,11.10
2008,04,27,09,17,11.20
2008,04,27,09,18,11.20
2008,04,27,09,19,11.20
2008,04,27,09,20,11.20
2008,04,27,09,21,11.20
2008,04,27,09,22,11.20
2008,04,27,09,23,11.20
2008,04,27,09,24,11.10
2008,04,27,09,25,11.10
2008,04,27,09,26,11.10
2008,04,27,09,27,11.10
2008,04,27,09,28,11.10
2008,04,27,09,29,11.10
2008,04,27,09,30,11.10
2008,04,27,09,31,11.10
2008,04,27,09,32,11.10
2008,04,27,09,33,11.10
2008,04,27,09,34,11.10
2008,04,27,09,35,11.10
2008,04,27,09,36,11.10
2008,04,27,09,37,11.10
2008,04,27,09,38,11.10
2008,04,27,09,39,11.10
2008,04,27,09,40,11.10
2008,04,27,09,41,11.20
2008,04,27,09,42,11.20
2008,04,27,09,43,11.20
2008,04,27,09,44,11.20
2008,04,27,09,45,11.20
2008,04,27,09,46,11.20
2008,04,27,09,47,11.30
2008,04,27,09,48,11.20
2008,04,27,09,49,11.20
2008,04,27,09,50,11.10
2008,04,27,09,51,11.10
2008,04,27,09,52,11.10
2008,04,27,09,53,11.00
2008,04,27,09,54,11.00
2008,04,27,09,55,11.00
2008,04,27,09,56,10.90
2008,04,27,09,57,10.90
2008,04,27,09,58,10.90
2008,04,27,09,59,11.00
2008,04,27,10,00,11.00
2008,04,27,10,01,11.00
2008,04,27,10,02,11.00
2008,04,27,10,03,11.10
2008,04,27,10,04,11.10
2008,04,27,10,05,11.10
2008,04,27,10,06,11.20
2008,04,27,10,07,11.20
2008,04,27,10,08,11.20
2008,04,27,10,09,11.20
2008,04,27,10,10,11.20
2008,04,27,10,11,11.20
2008,04,27,10,12,11.20
2008,04,27,10,13,11.20
2008,04,27,10,14,11.20
2008,04,27,10,15,11.10
2008,04,27,10,16,11.10
2008,04,27,10,17,11.10
2008,04,27,10,18,11.10
2008,04,27,10,19,11.10
2008,04,27,10,20,11.10
2008,04,27,10,21,11.10
2008,04,27,10,22,11.20
2008,04,27,10,23,11.20
2008,04,27,10,24,11.20
2008,04,27,10,25,11.20
2008,04,27,10,26,11.20
2008,04,27,10,27,11.20
2008,04,27,10,28,11.20
2008,04,27,10,29,11.20
2008,04,27,10,30,11.20
2008,04,27,10,31,11.10
2008,04,27,10,32,11.10
2008,04,27,10,33,11.10
2008,04,27,10,34,11.00
2008,04,27,10,35,10.80
2008,04,27,10,36,10.70
2008,04,27,10,37,10.60
2008,04,27,10,38,10.40
2008,04,27,10,39,10.20
2008,04,27,10,40,10.10
2008,04,27,10,41,9.90
2008,04,27,10,42,9.80
2008,04,27,10,43,9.70
2008,04,27,10,44,9.60
2008,04,27,10,45,9.60
2008,04,27,10,46,9.50
2008,04,27,10,47,9.50
2008,04,27,10,48,9.40
2008,04,27,10,49,9.40
2008,04,27,10,50,9.40
2008,04,27,10,51,9.40
2008,04,27,10,52,9.40
2008,04,27,10,53,9.40
2008,04,27,10,54,9.40
2008,04,27,10,55,9.40
2008,04,27,10,56,9.40
2008,04,27,10,57,9.30
2008,04,27,10,58,9.30
2008,04,27,10,59,9.30
2008,04,27,11,00,9.30
2008,04,27,11,01,9.30
2008,04,27,11,02,9.30
2008,04,27,11,03,9.20
2008,04,27,11,04,9.20
2008,04,27,11,05,9.20
2008,04,27,11,06,9.20
2008,04,27,11,07,9.10
2008,04,27,11,08,9.10
2008,04,27,11,09,9.10
2008,04,27,11,10,9.10
2008,04,27,11,11,9.00
2008,04,27,11,12,9.00
2008,04,27,11,13,9.00
2008,04,27,11,14,9.00
2008,04,27,11,15,9.00
2008,04,27,11,16,9.00
2008,04,27,11,17,9.00
2008,04,27,11,18,9.00
2008,04,27,11,19,9.00
2008,04,27,11,20,9.00
2008,04,27,11,21,9.00
2008,04,27,11,22,9.00
2008,04,27,11,23,9.10
2008,04,27,11,24,9.10
2008,04,27,11,25,9.10
2008,04,27,11,26,9.10
2008,04,27,11,27,9.10
2008,04,27,11,28,9.10
2008,04,27,11,29,9.10
2008,04,27,11,30,9.10
2008,04,27,11,31,9.10
2008,04,27,11,32,9.10
2008,04,27,11,33,9.10
2008,04,27,11,34,9.20
2008,04,27,11,35,9.20
2008,04,27,11,36,9.20
2008,04,27,11,37,9.20
2008,04,27,11,38,9.20
2008,04,27,11,39,9.20
2008,04,27,11,40,9.20
2008,04,27,11,41,9.20
2008,04,27,11,42,9.20
2008,04,27,11,43,9.20
2008,04,27,11,44,9.20
2008,04,27,11,45,9.20
2008,04,27,11,46,9.20
2008,04,27,11,47,9.20
2008,04,27,11,48,9.10
2008,04,27,11,49,9.10
2008,04,27,11,50,9.10
2008,04,27,11,51,9.10
2008,04,27,11,52,9.10
2008,04,27,11,53,9.10
2008,04,27,11,54,9.10
2008,04,27,11,55,9.10
2008,04,27,11,56,9.10
2008,04,27,11,57,9.10
2008,04,27,11,58,9.10
2008,04,27,11,59,9.10
2008,04,27,12,00,9.10
2008,04,27,12,01,9.10
2008,04,27,12,02,9.20
2008,04,27,12,03,9.10
2008,04,27,12,04,9.10
2008,04,27,12,05,9.00
2008,04,27,12,06,9.00
2008,04,27,12,07,9.00
2008,04,27,12,08,9.00
2008,04,27,12,09,9.00
2008,04,27,12,10,9.00
2008,04,27,12,11,9.00
2008,04,27,12,12,8.90
2008,04,27,12,13,8.90
2008,04,27,12,14,8.90
2008,04,27,12,15,8.90
2008,04,27,12,16,8.80
2008,04,27,12,17,8.90
2008,04,27,12,18,8.90
2008,04,27,12,19,8.90
2008,04,27,12,20,8.90
2008,04,27,12,21,8.90
2008,04,27,12,22,8.90
2008,04,27,12,23,9.00
2008,04,27,12,24,9.00
2008,04,27,12,25,9.00
2008,04,27,12,26,9.10
2008,04,27,12,27,9.10
2008,04,27,12,28,9.10
2008,04,27,12,29,9.20
2008,04,27,12,30,9.20
2008,04,27,12,31,9.20
2008,04,27,12,32,9.20
2008,04,27,12,33,9.20
2008,04,27,12,34,9.20
2008,04,27,12,35,9.30
2008,04,27,12,36,9.30
2008,04,27,12,37,9.30
2008,04,27,12,38,9.30
2008,04,27,12,39,9.20
2008,04,27,12,40,9.20
2008,04,27,12,41,9.20
2008,04,27,12,42,9.20
2008,04,27,12,43,9.20
2008,04,27,12,44,9.20
2008,04,27,12,45,9.20
2008,04,27,12,46,9.10
2008,04,27,12,47,9.10
2008,04,27,12,48,9.10
2008,04,27,12,49,9.10
2008,04,27,12,50,9.20
2008,04,27,12,51,9.20
2008,04,27,12,52,9.20
2008,04,27,12,53,9.30
2008,04,27,12,54,9.30
2008,04,27,12,55,9.30
2008,04,27,12,56,9.30
2008,04,27,12,57,9.30
2008,04,27,12,58,9.30
2008,04,27,12,59,9.40
2008,04,27,13,00,9.40
2008,04,27,13,01,9.40
2008,04,27,13,02,9.40
2008,04,27,13,03,9.30
2008,04,27,13,04,9.20
2008,04,27,13,05,9.20
2008,04,27,13,06,9.20
2008,04,27,13,07,9.10
2008,04,27,13,08,9.10
2008,04,27,13,09,9.20
2008,04,27,13,10,9.10
2008,04,27,13,11,9.00
2008,04,27,13,12,8.90
2008,04,27,13,13,8.90
2008,04,27,13,14,8.90
2008,04,27,13,15,8.90
2008,04,27,13,16,8.90
2008,04,27,13,17,8.90
2008,04,27,13,18,9.00
2008,04,27,13,19,9.00
2008,04,27,13,20,9.00
2008,04,27,13,21,9.10
2008,04,27,13,22,9.10
2008,04,27,13,23,9.10
2008,04,27,13,24,9.10
2008,04,27,13,25,9.10
2008,04,27,13,26,9.10
2008,04,27,13,27,9.10
2008,04,27,13,28,9.10
2008,04,27,13,29,9.10
2008,04,27,13,30,9.10
2008,04,27,13,31,9.00
2008,04,27,13,32,9.00
2008,04,27,13,33,8.90
2008,04,27,13,34,8.90
2008,04,27,13,35,8.80
2008,04,27,13,36,8.80
2008,04,27,13,37,8.80
2008,04,27,13,38,8.80
2008,04,27,13,39,8.80
2008,04,27,13,40,8.80
2008,04,27,13,41,8.90
2008,04,27,13,42,8.90
2008,04,27,13,43,9.00
2008,04,27,13,44,9.00
2008,04,27,13,45,9.00
2008,04,27,13,46,9.00
2008,04,27,13,47,9.10
2008,04,27,13,48,9.10
2008,04,27,13,49,9.10
2008,04,27,13,50,9.10
2008,04,27,13,51,9.20
2008,04,27,13,52,9.20
2008,04,27,13,53,9.20
2008,04,27,13,54,9.20
2008,04,27,13,55,9.10
2008,04,27,13,56,9.10
2008,04,27,13,57,9.10
2008,04,27,13,58,9.10
2008,04,27,13,59,9.10
2008,04,27,14,00,9.10
2008,04,27,14,01,9.10
2008,04,27,14,02,9.00
2008,04,27,14,03,9.00
2008,04,27,14,04,9.00
2008,04,27,14,05,9.00
2008,04,27,14,06,9.00
2008,04,27,14,07,9.10
2008,04,27,14,08,9.10
2008,04,27,14,09,9.10
2008,04,27,14,10,9.10
2008,04,27,14,11,9.10
2008,04,27,14,12,9.10
2008,04,27,14,13,9.10
2008,04,27,14,14,9.20
2008,04,27,14,15,9.20
2008,04,27,14,16,9.20
2008,04,27,14,17,9.20
2008,04,27,14,18,9.20
2008,04,27,14,19,9.20
2008,04,27,14,20,9.20
2008,04,27,14,21,9.20
2008,04,27,14,22,9.20
2008,04,27,14,23,9.20
2008,04,27,14,24,9.20
2008,04,27,14,25,9.20
2008,04,27,14,26,9.20
2008,04,27,14,27,9.20
2008,04,27,14,28,9.30
2008,04,27,14,29,9.30
2008,04,27,14,30,9.30
2008,04,27,14,31,9.30
2008,04,27,14,32,9.30
2008,04,27,14,33,9.40
2008,04,27,14,34,9.40
2008,04,27,14,35,9.40
2008,04,27,14,36,9.40
2008,04,27,14,37,9.50
2008,04,27,14,38,9.40
2008,04,27,14,39,9.40
2008,04,27,14,40,9.40
2008,04,27,14,41,9.50
2008,04,27,14,42,9.50
2008,04,27,14,43,9.50
2008,04,27,14,44,9.40
2008,04,27,14,45,9.40
2008,04,27,14,46,9.30
2008,04,27,14,47,9.30
2008,04,27,14,48,9.30
2008,04,27,14,49,9.30
2008,04,27,14,50,9.30
2008,04,27,14,51,9.40
2008,04,27,14,52,9.40
2008,04,27,14,53,9.30
2008,04,27,14,54,9.30
2008,04,27,14,55,9.40
2008,04,27,14,56,9.40
2008,04,27,14,57,9.40
2008,04,27,14,58,9.50
2008,04,27,14,59,9.50
2008,04,27,15,00,9.60
2008,04,27,15,01,9.60
2008,04,27,15,02,9.80
2008,04,27,15,03,9.90
2008,04,27,15,04,9.90
2008,04,27,15,05,9.90
2008,04,27,15,06,9.90
2008,04,27,15,07,10.00
2008,04,27,15,08,10.00
2008,04,27,15,09,10.00
2008,04,27,15,10,10.00
2008,04,27,15,11,10.00
2008,04,27,15,12,10.10
2008,04,27,15,13,10.10
2008,04,27,15,14,10.10
2008,04,27,15,15,10.10
2008,04,27,15,16,10.10
2008,04,27,15,17,10.20
2008,04,27,15,18,10.20
2008,04,27,15,19,10.20
2008,04,27,15,20,10.20
2008,04,27,15,21,10.30
2008,04,27,15,22,10.30
2008,04,27,15,23,10.30
2008,04,27,15,24,10.30
2008,04,27,15,25,10.20
2008,04,27,15,26,10.30
2008,04,27,15,27,10.30
2008,04,27,15,28,10.40
2008,04,27,15,29,10.40
2008,04,27,15,30,10.50
2008,04,27,15,31,10.60
2008,04,27,15,32,10.60
2008,04,27,15,33,10.60
2008,04,27,15,34,10.60
2008,04,27,15,35,10.70
2008,04,27,15,36,10.70
2008,04,27,15,37,10.70
2008,04,27,15,38,10.70
2008,04,27,15,39,10.70
2008,04,27,15,40,10.70
2008,04,27,15,41,10.70
2008,04,27,15,42,10.60
2008,04,27,15,43,10.60
2008,04,27,15,44,10.60
2008,04,27,15,45,10.70
2008,04,27,15,46,10.70
2008,04,27,15,47,10.70
2008,04,27,15,48,10.70
2008,04,27,15,49,10.70
2008,04,27,15,50,10.70
2008,04,27,15,51,10.70
2008,04,27,15,52,10.80
2008,04,27,15,53,10.80
2008,04,27,15,54,10.80
2008,04,27,15,55,10.80
2008,04,27,15,56,10.80
2008,04,27,15,57,10.80
2008,04,27,15,58,10.90
2008,04,27,15,59,10.90
2008,04,27,16,00,10.90
2008,04,27,16,01,10.90
2008,04,27,16,02,11.00
2008,04,27,16,03,11.10
2008,04,27,16,04,11.10
2008,04,27,16,05,11.20
2008,04,27,16,06,11.10
2008,04,27,16,07,11.10
2008,04,27,16,08,11.10
2008,04,27,16,09,11.00
2008,04,27,16,10,11.00
2008,04,27,16,11,10.90
2008,04,27,16,12,10.90
2008,04,27,16,13,10.90
2008,04,27,16,14,10.90
2008,04,27,16,15,10.90
2008,04,27,16,16,10.90
2008,04,27,16,17,10.80
2008,04,27,16,18,10.90
2008,04,27,16,19,10.80
2008,04,27,16,20,10.80
2008,04,27,16,21,10.70
2008,04,27,16,22,10.70
2008,04,27,16,23,10.70
2008,04,27,16,24,10.70
2008,04,27,16,25,10.70
2008,04,27,16,26,10.70
2008,04,27,16,27,10.60
2008,04,27,16,28,10.60
2008,04,27,16,29,10.60
2008,04,27,16,30,10.70
2008,04,27,16,31,10.70
2008,04,27,16,32,10.70
2008,04,27,16,33,10.70
2008,04,27,16,34,10.70
2008,04,27,16,35,10.70
2008,04,27,16,36,10.70
2008,04,27,16,37,10.70
2008,04,27,16,38,10.70
2008,04,27,16,39,10.70
2008,04,27,16,40,10.70
2008,04,27,16,41,10.70
2008,04,27,16,42,10.70
2008,04,27,16,43,10.70
2008,04,27,16,44,10.60
2008,04,27,16,45,10.60
2008,04,27,16,46,10.70
2008,04,27,16,47,10.70
2008,04,27,16,48,10.80
2008,04,27,16,49,10.80
2008,04,27,16,50,10.80
2008,04,27,16,51,10.80
2008,04,27,16,52,10.80
2008,04,27,16,53,10.70
2008,04,27,16,54,10.70
2008,04,27,16,55,10.70
2008,04,27,16,56,10.80
2008,04,27,16,57,10.80
2008,04,27,16,58,10.80
2008,04,27,16,59,10.80
2008,04,27,17,00,10.70
2008,04,27,17,01,10.70
2008,04,27,17,02,10.60
2008,04,27,17,03,10.60
2008,04,27,17,04,10.70
2008,04,27,17,05,10.70
2008,04,27,17,06,10.70
2008,04,27,17,07,10.70
2008,04,27,17,08,10.60
2008,04,27,17,09,10.60
2008,04,27,17,10,10.60
2008,04,27,17,11,10.60
2008,04,27,17,12,10.60
2008,04,27,17,13,10.60
2008,04,27,17,14,10.60
2008,04,27,17,15,10.60
2008,04,27,17,16,10.60
2008,04,27,17,17,10.60
2008,04,27,17,18,10.60
2008,04,27,17,19,10.60
2008,04,27,17,20,10.60
2008,04,27,17,21,10.60
2008,04,27,17,22,10.60
2008,04,27,17,23,10.50
2008,04,27,17,24,10.50
2008,04,27,17,25,10.50
2008,04,27,17,26,10.50
2008,04,27,17,27,10.60
2008,04,27,17,28,10.60
2008,04,27,17,29,10.60
2008,04,27,17,30,10.60
2008,04,27,17,31,10.60